EW5123 Weather Reports


time (UTC)temp
C
wind
direction
speed
KPH
gust
KPH
rain 1hr
cm
rain 24hr
cm
rain mn
cm
humidity
%
barometer
mb
20260506141503 -1 356 0.0 0.0 0.00 0.15 0.00 97 981.3
20260506141003 -1 328 0.0 0.0 0.00 0.15 0.00 97 981.3
20260506140502 -1 356 0.0 0.0 0.00 0.18 0.00 97 981.3
20260506140005 -1 356 0.0 0.0 0.00 0.18 0.00 96 981.4
20260506140001 -2 356 0.0 0.0 0.00 0.18 0.00 96 981.4
20260506135001 -2 15 0.0 0.0 0.00 0.18 0.00 96 981.4
20260506134459 -2 10 0.0 3.2 0.00 0.20 0.00 96 981.3
20260506133959 -2 338 0.0 3.2 0.00 0.20 0.00 96 981.3
20260506133459 -2 352 0.0 1.6 0.00 0.20 0.00 96 981.3
20260506132959 -2 22 0.0 1.6 0.00 0.20 0.00 96 981.2
20260506132457 -1 352 0.0 1.6 0.00 0.20 0.00 97 981.2
20260506132000 -2 356 0.0 0.0 0.00 0.20 0.00 97 980.8
20260506131956 -1 16 0.0 0.0 0.00 0.20 0.00 97 980.9
20260506130952 -2 358 0.0 0.0 0.00 0.20 0.00 97 980.7
20260506130452 -2 8 0.0 4.8 0.00 0.20 0.00 97 980.7
20260506125955 -2 344 0.0 4.8 0.00 0.20 0.00 97 980.6
20260506125951 -2 110 0.0 0.0 0.00 0.20 0.00 96 980.6
20260506124950 -2 110 0.0 0.0 0.00 0.20 0.00 96 980.5
20260506124450 -2 126 0.0 0.0 0.00 0.20 0.00 96 980.5
20260506123950 -2 127 0.0 0.0 0.00 0.20 0.00 96 980.5
20260506123450 -2 353 0.0 0.0 0.00 0.20 0.00 96 980.2
20260506122954 -2 24 0.0 0.0 0.00 0.20 0.00 96 980.2
20260506122950 -2 345 0.0 0.0 0.00 0.20 0.00 96 980.2
20260506122555 -2 338 0.0 0.0 0.00 0.20 0.00 96 980.4
20260506121452 -2 312 0.0 0.0 0.00 0.20 0.00 96 980.2
20260506121448 -2 11 0.0 0.0 0.00 0.20 0.00 96 980.4
20260506120452 -2 46 0.0 0.0 0.00 0.23 0.00 96 980.1
20260506120448 -2 323 0.0 0.0 0.00 0.23 0.00 96 980.1
20260506115449 -2 214 0.0 0.0 0.00 0.23 0.00 96 980.0
20260506114953 -2 285 0.0 0.0 0.00 0.25 0.00 96 979.9
20260506114948 -2 22 0.0 0.0 0.00 0.23 0.00 96 980.0
20260506114448 -2 352 0.0 0.0 0.00 0.25 0.00 96 980.0
20260506114053 -2 321 0.0 0.0 0.00 0.28 0.00 96 979.6
20260506112951 -2 217 0.0 0.0 0.00 0.30 0.00 96 979.8
20260506112946 -2 20 0.0 0.0 0.00 0.28 0.00 96 979.5
20260506111946 -2 308 0.0 0.0 0.00 0.30 0.00 96 979.9
20260506111445 -2 13 0.0 0.0 0.00 0.30 0.00 96 979.9
20260506110949 -2 4 0.0 0.0 0.00 0.30 0.00 96 979.9
20260506110944 -2 343 0.0 0.0 0.00 0.30 0.00 96 979.9
20260506110444 -2 353 0.0 0.0 0.00 0.30 0.00 96 979.9
20260506105444 -2 348 0.0 0.0 0.00 0.30 0.00 96 979.8
20260506104948 -2 27 0.0 0.0 0.00 0.30 0.00 96 979.8
20260506104944 -2 29 0.0 0.0 0.00 0.30 0.00 96 979.8
20260506103942 -2 343 0.0 0.0 0.00 0.30 0.00 96 979.6
20260506103442 -2 333 0.0 0.0 0.00 0.30 0.00 96 979.6
20260506102942 -2 327 0.0 0.0 0.00 0.30 0.00 96 979.6
20260506102442 -2 323 0.0 0.0 0.00 0.30 0.00 96 979.6
20260506101942 -2 348 0.0 0.0 0.00 0.30 0.00 96 979.6
20260506101446 -2 331 0.0 0.0 0.00 0.30 0.00 96 979.6
20260506101442 -2 330 0.0 0.0 0.00 0.30 0.00 96 979.6
20260506100442 -2 354 0.0 0.0 0.00 0.30 0.00 96 979.5
20260506095942 -2 316 0.0 0.0 0.00 0.30 0.00 96 979.4
20260506095447 -2 335 0.0 0.0 0.00 0.30 0.00 96 979.5
20260506095443 -2 300 0.0 0.0 0.00 0.30 0.00 96 979.4
20260506094442 -2 25 0.0 0.0 0.00 0.30 0.00 96 979.4
20260506094438 -2 35 0.0 0.0 0.00 0.30 0.00 96 979.4
20260506094043 -2 0 0.0 0.0 0.00 0.30 0.00 96 979.4
20260506092938 -2 18 0.0 0.0 0.00 0.30 0.00 96 979.3
20260506092441 -2 0 0.0 0.0 0.00 0.30 0.00 96 979.4
20260506092437 -2 20 0.0 0.0 0.00 0.30 0.00 97 979.3
20260506092040 -2 323 0.0 0.0 0.00 0.30 0.00 97 979.3
20260506091541 -2 352 0.0 0.0 0.00 0.30 0.00 97 979.3
20260506090435 -2 5 0.0 0.0 0.00 0.30 0.00 97 979.3
20260506085934 -2 333 0.0 0.0 0.00 0.30 0.00 97 979.3
20260506085437 -2 321 0.0 1.6 0.00 0.30 0.00 97 979.4
20260506085433 -2 316 0.0 1.6 0.00 0.30 0.00 97 979.4
20260506084932 -2 17 0.0 1.6 0.00 0.30 0.00 97 979.4
20260506083932 -1 338 0.0 3.2 0.00 0.30 0.00 97 979.5
20260506083432 -1 310 0.0 3.2 0.00 0.30 0.00 97 979.6
20260506082931 -1 330 0.0 1.6 0.00 0.30 0.00 97 979.6
20260506082429 -1 8 0.0 3.2 0.00 0.30 0.00 97 979.6
20260506081929 -1 319 0.0 3.2 0.00 0.30 0.00 97 979.6
20260506081429 -1 323 0.0 1.6 0.00 0.30 0.00 97 979.6
20260506080930 -1 321 0.0 1.6 0.00 0.30 0.00 97 979.5
20260506080431 -1 12 0.0 1.6 0.00 0.30 0.00 97 979.3
20260506073427 -1 13 0.0 1.6 0.00 0.33 0.00 97 979.4
20260506072928 -1 309 0.0 1.6 0.00 0.33 0.00 97 979.4
20260506072428 -1 17 0.0 1.6 0.00 0.33 0.00 97 979.4
20260506071928 -1 311 0.0 1.6 0.00 0.33 0.00 97 979.4
20260506071428 -1 318 0.0 1.6 0.00 0.33 0.00 97 979.5
20260506070926 -1 334 0.0 0.0 0.00 0.33 0.00 97 979.5
20260506070426 -1 335 0.0 0.0 0.00 0.36 0.00 97 979.4
20260506062425 -1 348 0.0 0.0 0.00 0.43 0.00 97 979.3
20260506061929 -1 337 0.0 1.6 0.00 0.43 0.00 97 979.2
20260506061925 -1 327 0.0 1.6 0.00 0.43 0.00 97 979.3
20260506060925 -1 353 0.0 0.0 0.00 0.43 0.00 97 979.1
20260506060425 -1 335 0.0 0.0 0.00 0.43 0.00 97 979.1
20260506050414 -1 26 0.0 3.2 0.00 0.48 0.43 97 978.8
20260506044913 -1 315 0.0 3.2 0.00 0.51 0.43 96 979.1
20260506044412 -1 319 0.0 6.4 0.00 0.53 0.43 97 978.9
20260506043916 -1 338 0.0 6.4 0.00 0.53 0.43 97 978.9
20260506043912 -1 304 0.0 0.0 0.00 0.53 0.43 97 978.8
20260506043516 -1 326 0.0 0.0 0.00 0.53 0.43 97 978.7
20260506042408 -1 344 0.0 1.6 0.00 0.53 0.43 97 978.7
20260506041912 -1 340 0.0 3.2 0.00 0.53 0.43 97 978.8
20260506041908 -1 342 0.0 1.6 0.00 0.53 0.43 97 978.7
20260506040906 -1 319 0.0 3.2 0.00 0.53 0.43 97 978.7
20260506040406 -1 310 0.0 3.2 0.00 0.56 0.43 97 978.8
20260506035906 -1 352 0.0 3.2 0.00 0.56 0.43 97 978.8
20260506035408 -1 42 0.0 3.2 0.00 0.58 0.43 97 978.8
20260506035404 -1 329 0.0 0.0 0.00 0.58 0.43 97 978.9
20260506034405 -1 314 0.0 3.2 0.00 0.61 0.43 97 978.7
20260506033904 -1 319 0.0 3.2 0.00 0.61 0.43 97 978.5
20260506033410 -1 28 0.0 1.6 0.00 0.61 0.43 96 978.3
20260506033404 -1 309 0.0 3.2 0.00 0.61 0.43 96 978.5
20260506032904 -1 315 0.0 3.2 0.00 0.61 0.43 96 978.5
20260506031905 -1 349 0.0 1.6 0.00 0.64 0.43 96 978.2
20260506031404 -1 306 0.0 4.8 0.00 0.64 0.43 96 978.1
20260506030904 -1 295 0.0 4.8 0.00 0.64 0.43 96 978.0
20260506030408 -1 329 0.0 3.2 0.00 0.64 0.43 96 977.9
20260506030404 -1 297 0.0 3.2 0.00 0.64 0.43 96 978.0
20260506025404 -1 309 0.0 1.6 0.00 0.64 0.43 96 977.8
20260506024902 -1 306 0.0 3.2 0.00 0.64 0.43 96 977.8
20260506024402 -1 345 0.0 3.2 0.00 0.64 0.43 96 977.8
20260506023902 -1 295 0.0 3.2 0.00 0.64 0.43 96 977.6
20260506023402 -1 315 0.0 3.2 0.00 0.64 0.43 96 977.5
20260506022902 -1 352 0.0 3.2 0.00 0.64 0.43 96 977.3
20260506022401 -1 306 0.0 1.6 0.00 0.64 0.43 96 977.2
20260506021904 -1 2 0.0 1.6 0.00 0.64 0.43 96 977.2
20260506021406 -1 217 0.0 3.2 0.00 0.64 0.43 96 976.9
20260506021401 -1 5 0.0 3.2 0.00 0.64 0.43 96 977.0
20260506020401 -1 314 0.0 3.2 0.00 0.64 0.43 96 976.9
20260506015900 -1 290 0.0 3.2 0.00 0.64 0.43 96 976.9
20260506015400 -1 311 0.0 3.2 0.00 0.64 0.43 96 976.9
20260506014900 -1 339 1.6 4.8 0.00 0.64 0.43 96 976.9
20260506014400 -1 321 1.6 6.4 0.00 0.64 0.43 96 976.9
20260506013900 -1 319 1.6 6.4 0.00 0.64 0.43 96 976.9
20260506013400 -1 6 1.6 4.8 0.00 0.64 0.43 96 976.7
20260506012900 -1 11 0.0 4.8 0.00 0.64 0.43 96 976.5
20260506012405 -1 301 1.6 6.4 0.00 0.64 0.43 96 976.6
20260506012359 -1 296 0.0 8.0 0.00 0.64 0.43 96 976.5
20260506011859 -1 299 1.6 8.0 0.00 0.64 0.43 96 976.6
20260506010859 -1 341 1.6 6.4 0.00 0.64 0.43 96 976.5
20260506010359 -1 307 1.6 6.4 0.00 0.64 0.43 96 976.5
20260506005859 -1 306 1.6 4.8 0.00 0.64 0.43 96 976.3
20260506005357 -1 322 1.6 4.8 0.00 0.64 0.43 96 976.3
20260506004903 0 312 1.6 6.4 0.00 0.64 0.43 96 976.3
20260506004857 0 296 1.6 4.8 0.00 0.64 0.43 96 976.5
20260506004358 0 347 1.6 4.8 0.00 0.64 0.43 96 976.3
20260506003358 0 353 0.0 6.4 0.00 0.64 0.43 96 976.3
20260506002859 0 334 0.0 4.8 0.03 0.64 0.43 96 976.3
20260506002402 0 302 1.6 6.4 0.03 0.64 0.43 96 976.2
20260506002358 0 288 1.6 4.8 0.03 0.64 0.43 96 976.2
20260506001358 0 222 1.6 6.4 0.03 0.64 0.43 96 976.2
20260506000858 0 319 0.0 3.2 0.03 0.64 0.43 97 976.1
20260506000401 0 294 0.0 3.2 0.03 0.64 0.43 97 976.0
20260505235858 0 18 0.0 3.2 0.03 0.64 0.43 97 976.0
20260505235402 0 346 0.0 1.6 0.03 0.64 0.43 96 975.9
20260505235358 0 339 0.0 3.2 0.03 0.64 0.43 96 975.9
20260505234358 0 4 0.0 4.8 0.03 0.64 0.43 96 975.9
20260505233856 0 326 1.6 4.8 0.03 0.64 0.43 96 975.9
20260505233400 0 337 3.2 11.3 0.00 0.61 0.41 96 975.6
20260505233356 0 351 1.6 4.8 0.03 0.64 0.43 96 975.6
20260505232355 0 340 4.8 11.3 0.00 0.61 0.41 96 975.7
20260505231859 1 321 3.2 11.3 0.00 0.61 0.41 97 975.6
20260505231855 1 13 4.8 11.3 0.00 0.61 0.41 96 975.7
20260505231501 1 329 3.2 9.7 0.00 0.61 0.41 97 975.5
20260505230354 1 342 3.2 9.7 0.00 0.61 0.41 97 975.3
20260505225852 1 350 3.2 11.3 0.00 0.61 0.41 97 975.2
20260505225352 1 334 3.2 11.3 0.00 0.61 0.41 97 975.0
20260505224851 1 30 4.8 11.3 0.00 0.61 0.41 97 975.0
20260505224352 1 325 4.8 11.3 0.00 0.61 0.41 96 974.9
20260505223856 1 314 3.2 8.0 0.00 0.61 0.41 97 974.7
20260505223852 1 326 3.2 11.3 0.00 0.61 0.41 96 974.8
20260505222852 1 17 3.2 8.0 0.00 0.61 0.41 97 974.7
20260505222352 1 8 3.2 11.3 0.03 0.61 0.41 96 974.7
20260505221850 1 323 3.2 11.3 0.03 0.61 0.41 97 974.6
20260505221350 1 320 3.2 9.7 0.03 0.61 0.41 97 974.6
20260505220850 1 19 4.8 11.3 0.03 0.61 0.41 97 974.6
20260505220350 1 25 4.8 11.3 0.03 0.61 0.41 97 974.7
20260505215850 1 314 3.2 11.3 0.03 0.61 0.41 96 974.7
20260505215350 1 326 3.2 14.5 0.03 0.61 0.41 97 974.8
20260505214850 1 6 4.8 14.5 0.03 0.61 0.41 96 974.8
20260505214350 1 307 3.2 12.9 0.03 0.61 0.41 96 974.8
20260505213854 1 340 4.8 12.9 0.03 0.61 0.41 97 974.9
20260505213849 1 324 3.2 12.9 0.03 0.61 0.41 97 974.9
20260505212847 1 324 4.8 12.9 0.03 0.61 0.41 96 975.0
20260505212345 2 321 4.8 12.9 0.00 0.58 0.38 97 975.0
20260505211845 2 26 4.8 12.9 0.00 0.58 0.38 96 975.2
20260505211346 2 18 4.8 12.9 0.00 0.58 0.38 96 975.3
20260505211342 2 309 4.8 12.9 0.00 0.58 0.38 97 975.4
20260505210339 2 341 4.8 12.9 0.00 0.58 0.38 97 975.4
20260505205839 2 358 4.8 12.9 0.00 0.58 0.38 97 975.4
20260505205337 2 344 4.8 12.9 0.00 0.58 0.38 97 975.5
20260505204835 2 339 4.8 11.3 0.00 0.58 0.38 97 975.5
20260505204334 2 340 3.2 11.3 0.00 0.58 0.38 97 975.5
20260505203832 2 345 1.6 9.7 0.00 0.58 0.38 97 975.5
20260505203329 2 11 3.2 11.3 0.00 0.58 0.38 97 975.7
20260505202829 2 15 4.8 14.5 0.00 0.58 0.38 97 975.9
20260505202329 2 356 3.2 14.5 0.00 0.58 0.38 97 976.0
20260505201828 2 342 1.6 6.4 0.00 0.58 0.38 97 976.0
20260505201334 2 11 3.2 8.0 0.03 0.58 0.38 97 976.0
20260505200833 2 335 1.6 8.0 0.03 0.58 0.38 97 976.1
20260505200829 2 340 3.2 8.0 0.03 0.58 0.38 97 976.1
20260505195828 2 13 1.6 8.0 0.03 0.58 0.38 97 976.1
20260505195327 2 332 1.6 8.0 0.03 0.58 0.38 97 976.0
20260505194827 2 326 1.6 6.4 0.03 0.58 0.38 97 976.1
20260505194327 2 316 1.6 4.8 0.03 0.58 0.38 97 976.2
20260505193831 1 2 1.6 9.7 0.05 0.58 0.38 96 976.2
20260505193827 2 354 1.6 9.7 0.05 0.58 0.38 97 976.1
20260505192823 2 321 0.0 4.8 0.05 0.58 0.38 97 976.3
20260505192323 2 323 0.0 3.2 0.05 0.58 0.38 97 976.3
20260505191827 2 129 0.0 3.2 0.03 0.56 0.36 97 976.5
20260505191822 2 261 0.0 1.6 0.05 0.58 0.38 97 976.5
20260505190823 2 169 0.0 3.2 0.03 0.56 0.36 97 976.5
20260505190325 1 343 0.0 4.8 0.03 0.56 0.36 97 976.6
20260505185827 1 333 0.0 3.2 0.03 0.56 0.36 96 976.7
20260505185823 1 314 0.0 4.8 0.03 0.56 0.36 96 976.6
20260505184823 1 303 0.0 1.6 0.03 0.56 0.36 97 976.7
20260505184327 2 336 0.0 4.8 0.00 0.53 0.33 96 976.7
20260505184322 1 336 0.0 4.8 0.03 0.56 0.36 96 976.7
20260505183321 2 255 0.0 4.8 0.00 0.53 0.33 97 976.8
20260505182821 2 5 0.0 4.8 0.00 0.53 0.33 96 976.8
20260505182321 2 345 0.0 1.6 0.00 0.53 0.33 97 976.8
20260505181821 2 336 0.0 1.6 0.00 0.53 0.33 97 976.8
20260505181325 2 342 0.0 1.6 0.03 0.53 0.33 97 977.0
20260505181321 2 346 0.0 0.0 0.00 0.53 0.33 97 977.0
20260505180321 2 326 0.0 1.6 0.03 0.53 0.33 97 977.3
20260505175821 2 285 0.0 1.6 0.03 0.53 0.33 97 977.2
20260505175320 1 284 0.0 1.6 0.03 0.53 0.33 97 977.2
20260505174823 1 0 0.0 1.6 0.03 0.53 0.33 97 977.3
20260505174819 1 297 0.0 1.6 0.03 0.53 0.33 97 977.2
20260505173819 1 321 0.0 1.6 0.03 0.53 0.33 97 977.3
20260505173320 1 311 0.0 1.6 0.03 0.53 0.33 97 977.3
20260505172819 1 322 0.0 1.6 0.03 0.53 0.33 97 977.3
20260505172319 1 309 0.0 1.6 0.03 0.53 0.33 97 977.4
20260505171819 1 329 0.0 4.8 0.03 0.53 0.33 97 977.4
20260505171319 1 287 0.0 4.8 0.03 0.53 0.33 97 977.5
20260505170819 1 3 0.0 3.2 0.00 0.51 0.30 97 977.5
20260505170318 1 275 0.0 3.2 0.00 0.51 0.30 97 977.6
20260505165817 1 323 0.0 3.2 0.00 0.51 0.30 97 977.6
20260505165318 1 4 0.0 1.6 0.00 0.51 0.30 97 977.6
20260505164821 1 355 0.0 3.2 0.00 0.51 0.30 97 977.8
20260505164815 1 324 0.0 1.6 0.00 0.51 0.30 97 977.6
20260505164315 1 339 0.0 3.2 0.00 0.51 0.30 97 977.8
20260505163319 1 17 0.0 1.6 0.00 0.51 0.30 97 977.9
20260505163314 1 6 0.0 1.6 0.00 0.51 0.30 97 977.9
20260505162313 1 151 0.0 1.6 0.00 0.51 0.30 97 977.8
20260505161811 1 290 0.0 1.6 0.00 0.51 0.30 97 977.8
20260505161310 1 319 0.0 1.6 0.00 0.51 0.30 97 977.8
20260505160809 1 316 0.0 1.6 0.00 0.51 0.30 97 977.9
20260505160313 1 1 1.6 6.4 0.00 0.51 0.30 97 977.9
20260505160309 1 82 1.6 6.4 0.00 0.51 0.30 97 977.9
20260505152808 1 345 0.0 4.8 0.03 0.51 0.30 97 977.9
20260505152307 1 4 0.0 3.2 0.03 0.51 0.30 97 978.0
20260505151805 1 341 0.0 3.2 0.03 0.51 0.30 97 978.0
20260505151305 1 0 1.6 4.8 0.03 0.51 0.30 97 978.0
20260505150802 1 335 1.6 6.4 0.03 0.51 0.30 97 978.0
20260505150301 1 8 1.6 6.4 0.05 0.51 0.30 97 977.9